QPF
0.06 0.07 0.08 0.10 0.07 0.04 0.03 0.03 0.03 0.02 0.01 0.01 0.01 0.00 0.00 0.00 0.00 0.00 0.00 0.00 0.00 0.01 0.01 0.02 0.01 0.01 0.00 0.00 0.00 0.00 0.00 0.00 0.00 0.00 0.00 0.00 0.00 0.00 0.00 0.00 0.00 0.00 0.01
0.07 0.07 0.08 0.11 0.10 0.07 0.05 0.04 0.03 0.02 0.02 0.01 0.01 0.01 0.01 0.00 0.00 0.00 0.00 0.00 0.00 0.00 0.01 0.02 0.02 0.01 0.01 0.01 0.01 0.01 0.00 0.00 0.00 0.00 0.00 0.00 0.00 0.00 0.00 0.00 0.00 0.00 0.00
0.09 0.09 0.10 0.11 0.11 0.09 0.08 0.05 0.03 0.03 0.03 0.02 0.01 0.01 0.01 0.01 0.00 0.00 0.00 0.00 0.00 0.00 0.01 0.01 0.03 0.03 0.02 0.01 0.01 0.01 0.01 0.01 0.01 0.00 0.00 0.00 0.00 0.00 0.00 0.00 0.00 0.00 0.00
0.09 0.12 0.12 0.12 0.13 0.12 0.10 0.08 0.05 0.03 0.02 0.02 0.01 0.01 0.01 0.02 0.01 0.01 0.00 0.00 0.00 0.00 0.01 0.01 0.02 0.03 0.02 0.02 0.02 0.02 0.02 0.01 0.01 0.01 0.01 0.01 0.00 0.00 0.00 0.01 0.01 0.01 0.01
0.08 0.11 0.13 0.13 0.12 0.12 0.11 0.11 0.09 0.05 0.03 0.02 0.02 0.02 0.02 0.02 0.02 0.01 0.01 0.01 0.01 0.01 0.01 0.01 0.01 0.01 0.02 0.02 0.02 0.02 0.02 0.02 0.02 0.02 0.01 0.01 0.01 0.01 0.01 0.01 0.01 0.01 0.01
0.10 0.12 0.14 0.14 0.14 0.13 0.12 0.10 0.09 0.08 0.05 0.04 0.04 0.03 0.03 0.02 0.02 0.02 0.01 0.01 0.01 0.01 0.01 0.01 0.01 0.01 0.01 0.01 0.01 0.02 0.02 0.02 0.01 0.01 0.02 0.01 0.02 0.02 0.02 0.02 0.02 0.01 0.01
0.08 0.12 0.15 0.17 0.17 0.16 0.14 0.12 0.11 0.10 0.08 0.07 0.06 0.05 0.03 0.03 0.02 0.02 0.02 0.02 0.02 0.02 0.02 0.02 0.02 0.02 0.01 0.01 0.01 0.01 0.02 0.02 0.02 0.02 0.02 0.02 0.02 0.02 0.02 0.02 0.02 0.02 0.01
0.08 0.09 0.12 0.14 0.17 0.18 0.17 0.17 0.15 0.14 0.13 0.10 0.08 0.07 0.05 0.03 0.02 0.01 0.01 0.02 0.02 0.02 0.02 0.02 0.01 0.02 0.01 0.01 0.01 0.01 0.01 0.02 0.02 0.02 0.02 0.02 0.02 0.02 0.02 0.02 0.02 0.02 0.02
0.08 0.09 0.10 0.12 0.12 0.13 0.15 0.16 0.17 0.15 0.15 0.15 0.13 0.12 0.08 0.04 0.03 0.02 0.02 0.02 0.02 0.02 0.03 0.02 0.02 0.02 0.02 0.02 0.02 0.02 0.02 0.02 0.02 0.02 0.03 0.03 0.03 0.03 0.03 0.03 0.03 0.03 0.03
0.06 0.07 0.09 0.12 0.13 0.12 0.13 0.15 0.16 0.14 0.13 0.14 0.15 0.14 0.10 0.06 0.04 0.02 0.02 0.02 0.02 0.02 0.03 0.03 0.03 0.03 0.02 0.01 0.01 0.01 0.01 0.01 0.01 0.02 0.03 0.04 0.04 0.04 0.04 0.04 0.04 0.05 0.04
0.07 0.07 0.09 0.10 0.14 0.13 0.11 0.11 0.14 0.13 0.11 0.10 0.11 0.12 0.12 0.09 0.07 0.05 0.03 0.03 0.03 0.02 0.02 0.03 0.03 0.03 0.03 0.03 0.01 0.01 0.01 0.01 0.01 0.02 0.03 0.03 0.04 0.05 0.05 0.06 0.06 0.06 0.06
0.09 0.09 0.09 0.10 0.13 0.15 0.12 0.10 0.10 0.12 0.11 0.09 0.08 0.08 0.09 0.09 0.07 0.05 0.05 0.04 0.04 0.04 0.04 0.03 0.03 0.03 0.03 0.03 0.02 0.02 0.02 0.02 0.02 0.02 0.02 0.03 0.04 0.05 0.05 0.06 0.06 0.06 0.06
0.09 0.09 0.07 0.07 0.09 0.11 0.12 0.10 0.09 0.10 0.11 0.11 0.10 0.10 0.09 0.08 0.07 0.06 0.05 0.05 0.05 0.04 0.05 0.04 0.04 0.04 0.04 0.03 0.03 0.03 0.02 0.02 0.01 0.01 0.02 0.03 0.04 0.04 0.05 0.06 0.06 0.07 0.07
0.06 0.08 0.07 0.06 0.06 0.08 0.10 0.10 0.08 0.11 0.13 0.12 0.11 0.11 0.12 0.12 0.10 0.09 0.09 0.08 0.08 0.07 0.07 0.05 0.04 0.03 0.04 0.04 0.04 0.04 0.03 0.02 0.02 0.02 0.02 0.03 0.03 0.04 0.05 0.06 0.07 0.07 0.08
0.06 0.07 0.06 0.05 0.05 0.06 0.08 0.09 0.08 0.09 0.13 0.15 0.13 0.13 0.15 0.16 0.16 0.16 0.15 0.13 0.12 0.11 0.09 0.07 0.06 0.05 0.05 0.06 0.05 0.05 0.04 0.03 0.03 0.03 0.02 0.02 0.03 0.04 0.04 0.06 0.07 0.07 0.07
0.07 0.08 0.07 0.06 0.05 0.04 0.06 0.08 0.08 0.08 0.12 0.13 0.14 0.12 0.12 0.13 0.14 0.15 0.14 0.12 0.11 0.11 0.09 0.06 0.06 0.06 0.07 0.07 0.07 0.06 0.05 0.05 0.04 0.04 0.03 0.03 0.03 0.04 0.04 0.05 0.06 0.07 0.07
0.08 0.08 0.07 0.07 0.06 0.05 0.05 0.06 0.06 0.07 0.10 0.12 0.14 0.12 0.09 0.09 0.11 0.13 0.12 0.11 0.10 0.09 0.07 0.05 0.05 0.06 0.06 0.07 0.08 0.07 0.07 0.06 0.05 0.05 0.04 0.04 0.03 0.03 0.04 0.04 0.05 0.06 0.07
0.10 0.10 0.09 0.07 0.07 0.06 0.06 0.05 0.05 0.05 0.06 0.09 0.13 0.14 0.11 0.08 0.08 0.08 0.09 0.08 0.07 0.06 0.06 0.04 0.04 0.04 0.04 0.04 0.04 0.05 0.06 0.06 0.05 0.04 0.04 0.04 0.03 0.03 0.03 0.04 0.05 0.05 0.06
0.11 0.10 0.10 0.08 0.07 0.06 0.06 0.05 0.05 0.04 0.04 0.06 0.09 0.12 0.12 0.10 0.09 0.09 0.08 0.06 0.05 0.04 0.04 0.03 0.03 0.02 0.03 0.03 0.03 0.04 0.04 0.04 0.04 0.04 0.04 0.03 0.03 0.04 0.04 0.06 0.06 0.06 0.06
0.09 0.08 0.08 0.08 0.08 0.06 0.06 0.06 0.05 0.04 0.05 0.06 0.07 0.09 0.09 0.09 0.07 0.06 0.05 0.04 0.04 0.04 0.03 0.03 0.02 0.02 0.02 0.02 0.03 0.03 0.04 0.04 0.04 0.03 0.04 0.04 0.04 0.04 0.05 0.06 0.05 0.06 0.06
0.06 0.06 0.05 0.05 0.05 0.05 0.04 0.05 0.04 0.04 0.04 0.05 0.05 0.05 0.06 0.06 0.06 0.05 0.04 0.03 0.03 0.03 0.03 0.03 0.03 0.02 0.02 0.02 0.02 0.02 0.03 0.03 0.03 0.03 0.04 0.04 0.05 0.05 0.05 0.05 0.06 0.06 0.07
0.05 0.04 0.04 0.04 0.04 0.03 0.03 0.04 0.05 0.04 0.04 0.04 0.04 0.03 0.03 0.04 0.04 0.03 0.03 0.03 0.03 0.03 0.03 0.03 0.03 0.03 0.03 0.03 0.03 0.03 0.04 0.04 0.04 0.03 0.04 0.05 0.05 0.06 0.06 0.05 0.05 0.06 0.07
0.05 0.04 0.03 0.03 0.03 0.04 0.03 0.03 0.04 0.04 0.04 0.03 0.03 0.03 0.03 0.02 0.02 0.02 0.02 0.02 0.02 0.03 0.03 0.03 0.04 0.04 0.04 0.04 0.05 0.05 0.05 0.06 0.05 0.04 0.04 0.05 0.05 0.05 0.04 0.04 0.05 0.05 0.06
0.05 0.03 0.03 0.03 0.03 0.04 0.04 0.03 0.03 0.03 0.03 0.03 0.02 0.02 0.02 0.02 0.02 0.02 0.02 0.02 0.02 0.02 0.02 0.02 0.03 0.03 0.03 0.03 0.04 0.05 0.05 0.06 0.05 0.05 0.05 0.05 0.04 0.04 0.03 0.03 0.04 0.05 0.07
0.05 0.03 0.03 0.04 0.04 0.05 0.05 0.04 0.03 0.03 0.03 0.03 0.02 0.02 0.01 0.01 0.02 0.02 0.01 0.01 0.02 0.02 0.02 0.02 0.03 0.02 0.03 0.03 0.04 0.05 0.06 0.07 0.06 0.05 0.04 0.05 0.04 0.03 0.03 0.03 0.04 0.05 0.05
0.04 0.04 0.04 0.04 0.04 0.05 0.06 0.06 0.04 0.04 0.04 0.03 0.03 0.02 0.02 0.02 0.02 0.02 0.02 0.02 0.02 0.02 0.02 0.02 0.02 0.02 0.02 0.02 0.03 0.03 0.04 0.06 0.06 0.05 0.04 0.04 0.04 0.04 0.05 0.04 0.03 0.04 0.06
MSLP
1016.59 1016.37 1016.12 1015.88 1015.70 1015.60 1015.63 1015.78 1016.04 1016.36 1016.72 1017.07 1017.39 1017.65 1017.87 1018.05 1018.21 1018.36 1018.52 1018.68 1018.85 1019.01 1019.15 1019.29 1019.42 1019.55 1019.69 1019.86 1020.06 1020.27 1020.50 1020.72 1020.91 1021.08 1021.20 1021.27 1021.31 1021.32 1021.31 1021.29 1021.25 1021.21 1021.15
1016.59 1016.34 1016.04 1015.75 1015.52 1015.38 1015.36 1015.48 1015.70 1016.01 1016.36 1016.71 1017.03 1017.31 1017.54 1017.73 1017.90 1018.07 1018.23 1018.41 1018.58 1018.75 1018.90 1019.04 1019.17 1019.29 1019.43 1019.58 1019.76 1019.95 1020.16 1020.37 1020.57 1020.74 1020.87 1020.96 1021.01 1021.03 1021.03 1021.02 1021.00 1020.98 1020.95
1016.49 1016.22 1015.92 1015.62 1015.37 1015.21 1015.16 1015.24 1015.43 1015.70 1016.01 1016.34 1016.64 1016.90 1017.13 1017.32 1017.49 1017.66 1017.83 1018.00 1018.18 1018.35 1018.51 1018.65 1018.79 1018.92 1019.06 1019.21 1019.38 1019.57 1019.77 1019.98 1020.17 1020.34 1020.47 1020.56 1020.62 1020.65 1020.66 1020.66 1020.66 1020.67 1020.67
1016.29 1016.04 1015.75 1015.48 1015.24 1015.08 1015.01 1015.06 1015.19 1015.41 1015.67 1015.93 1016.19 1016.43 1016.63 1016.80 1016.96 1017.12 1017.28 1017.45 1017.62 1017.79 1017.96 1018.11 1018.27 1018.41 1018.57 1018.74 1018.92 1019.12 1019.33 1019.54 1019.73 1019.89 1020.02 1020.11 1020.17 1020.21 1020.23 1020.25 1020.28 1020.31 1020.35
1015.99 1015.77 1015.53 1015.30 1015.10 1014.96 1014.89 1014.89 1014.98 1015.12 1015.30 1015.49 1015.69 1015.87 1016.03 1016.18 1016.32 1016.46 1016.60 1016.76 1016.92 1017.09 1017.26 1017.44 1017.61 1017.79 1017.97 1018.17 1018.38 1018.60 1018.83 1019.04 1019.24 1019.40 1019.53 1019.63 1019.69 1019.74 1019.78 1019.82 1019.88 1019.94 1020.02
1015.60 1015.42 1015.25 1015.08 1014.93 1014.81 1014.74 1014.71 1014.74 1014.80 1014.90 1015.01 1015.14 1015.26 1015.37 1015.49 1015.60 1015.72 1015.85 1015.99 1016.14 1016.30 1016.47 1016.66 1016.85 1017.06 1017.28 1017.51 1017.76 1018.01 1018.26 1018.49 1018.69 1018.87 1019.00 1019.10 1019.18 1019.24 1019.30 1019.37 1019.46 1019.57 1019.68
1015.15 1015.01 1014.88 1014.78 1014.68 1014.60 1014.53 1014.48 1014.45 1014.45 1014.47 1014.51 1014.56 1014.63 1014.71 1014.79 1014.88 1014.98 1015.09 1015.21 1015.34 1015.49 1015.65 1015.84 1016.04 1016.27 1016.52 1016.79 1017.07 1017.35 1017.62 1017.87 1018.09 1018.27 1018.41 1018.52 1018.61 1018.70 1018.78 1018.89 1019.02 1019.17 1019.33
1014.66 1014.52 1014.44 1014.38 1014.33 1014.27 1014.21 1014.15 1014.09 1014.04 1014.00 1013.99 1014.00 1014.04 1014.09 1014.16 1014.23 1014.31 1014.40 1014.49 1014.60 1014.72 1014.86 1015.03 1015.24 1015.47 1015.74 1016.03 1016.33 1016.63 1016.92 1017.18 1017.41 1017.60 1017.76 1017.88 1017.99 1018.09 1018.21 1018.35 1018.52 1018.72 1018.93
1014.14 1013.99 1013.92 1013.88 1013.85 1013.82 1013.77 1013.71 1013.63 1013.56 1013.51 1013.48 1013.48 1013.51 1013.56 1013.62 1013.69 1013.76 1013.83 1013.89 1013.96 1014.04 1014.15 1014.29 1014.48 1014.70 1014.96 1015.26 1015.56 1015.87 1016.17 1016.44 1016.67 1016.87 1017.03 1017.17 1017.29 1017.42 1017.56 1017.73 1017.94 1018.18 1018.45
1013.62 1013.43 1013.33 1013.27 1013.24 1013.22 1013.18 1013.12 1013.06 1013.00 1012.97 1012.96 1012.98 1013.04 1013.11 1013.19 1013.27 1013.33 1013.37 1013.41 1013.44 1013.48 1013.54 1013.64 1013.79 1013.99 1014.23 1014.50 1014.80 1015.10 1015.39 1015.65 1015.89 1016.09 1016.25 1016.40 1016.53 1016.67 1016.84 1017.03 1017.27 1017.55 1017.85
1013.12 1012.86 1012.68 1012.58 1012.51 1012.47 1012.42 1012.38 1012.35 1012.34 1012.35 1012.40 1012.48 1012.58 1012.70 1012.81 1012.90 1012.96 1012.99 1013.00 1012.99 1012.98 1013.00 1013.06 1013.16 1013.32 1013.53 1013.78 1014.05 1014.33 1014.60 1014.86 1015.08 1015.28 1015.45 1015.60 1015.74 1015.89 1016.05 1016.26 1016.51 1016.81 1017.15
1012.66 1012.28 1012.00 1011.80 1011.67 1011.58 1011.52 1011.49 1011.49 1011.53 1011.61 1011.73 1011.89 1012.07 1012.24 1012.40 1012.51 1012.58 1012.60 1012.58 1012.54 1012.50 1012.48 1012.50 1012.56 1012.69 1012.87 1013.08 1013.32 1013.58 1013.83 1014.07 1014.28 1014.48 1014.64 1014.80 1014.94 1015.09 1015.26 1015.46 1015.71 1016.01 1016.36
1012.25 1011.73 1011.31 1010.99 1010.74 1010.58 1010.48 1010.44 1010.47 1010.57 1010.72 1010.93 1011.17 1011.42 1011.66 1011.86 1012.00 1012.08 1012.10 1012.07 1012.01 1011.95 1011.90 1011.90 1011.95 1012.05 1012.20 1012.39 1012.60 1012.83 1013.06 1013.28 1013.49 1013.68 1013.85 1014.01 1014.16 1014.31 1014.47 1014.66 1014.89 1015.18 1015.53
1011.89 1011.22 1010.64 1010.16 1009.78 1009.52 1009.35 1009.29 1009.33 1009.47 1009.70 1009.98 1010.29 1010.61 1010.91 1011.15 1011.32 1011.41 1011.43 1011.40 1011.34 1011.27 1011.23 1011.22 1011.26 1011.35 1011.49 1011.66 1011.85 1012.06 1012.27 1012.48 1012.68 1012.88 1013.06 1013.23 1013.39 1013.54 1013.70 1013.89 1014.10 1014.37 1014.70
1011.61 1010.78 1010.04 1009.39 1008.87 1008.48 1008.23 1008.12 1008.16 1008.32 1008.58 1008.92 1009.29 1009.66 1010.00 1010.27 1010.46 1010.56 1010.59 1010.57 1010.52 1010.47 1010.44 1010.44 1010.49 1010.58 1010.71 1010.87 1011.04 1011.23 1011.42 1011.62 1011.83 1012.03 1012.23 1012.42 1012.60 1012.78 1012.95 1013.14 1013.34 1013.59 1013.90
1011.43 1010.46 1009.56 1008.76 1008.09 1007.57 1007.22 1007.06 1007.06 1007.22 1007.50 1007.86 1008.27 1008.66 1009.02 1009.30 1009.50 1009.61 1009.65 1009.64 1009.60 1009.57 1009.56 1009.58 1009.64 1009.74 1009.86 1010.00 1010.15 1010.31 1010.48 1010.66 1010.86 1011.08 1011.30 1011.53 1011.75 1011.96 1012.17 1012.38 1012.59 1012.84 1013.13
1011.38 1010.32 1009.29 1008.36 1007.56 1006.93 1006.49 1006.25 1006.21 1006.34 1006.61 1006.97 1007.38 1007.77 1008.12 1008.40 1008.59 1008.69 1008.73 1008.72 1008.70 1008.68 1008.68 1008.72 1008.78 1008.86 1008.96 1009.06 1009.17 1009.29 1009.42 1009.57 1009.76 1009.98 1010.22 1010.49 1010.76 1011.04 1011.29 1011.55 1011.79 1012.06 1012.36
1011.51 1010.39 1009.29 1008.28 1007.39 1006.67 1006.15 1005.85 1005.76 1005.84 1006.08 1006.41 1006.79 1007.16 1007.48 1007.73 1007.89 1007.97 1007.99 1007.97 1007.94 1007.92 1007.92 1007.94 1007.98 1008.02 1008.07 1008.12 1008.16 1008.21 1008.27 1008.38 1008.53 1008.73 1008.99 1009.29 1009.62 1009.95 1010.28 1010.59 1010.89 1011.20 1011.53
1011.84 1010.72 1009.61 1008.56 1007.64 1006.87 1006.30 1005.95 1005.80 1005.84 1006.03 1006.31 1006.64 1006.95 1007.22 1007.42 1007.54 1007.58 1007.56 1007.52 1007.46 1007.41 1007.37 1007.35 1007.34 1007.32 1007.29 1007.24 1007.18 1007.13 1007.11 1007.13 1007.22 1007.39 1007.64 1007.95 1008.32 1008.71 1009.10 1009.48 1009.86 1010.22 1010.60
1012.38 1011.32 1010.26 1009.24 1008.32 1007.55 1006.96 1006.56 1006.37 1006.36 1006.49 1006.71 1006.97 1007.22 1007.42 1007.56 1007.62 1007.60 1007.53 1007.43 1007.33 1007.22 1007.13 1007.04 1006.95 1006.83 1006.70 1006.53 1006.35 1006.18 1006.03 1005.95 1005.95 1006.05 1006.26 1006.56 1006.94 1007.36 1007.81 1008.25 1008.68 1009.11 1009.53
1013.11 1012.17 1011.20 1010.26 1009.39 1008.64 1008.06 1007.64 1007.41 1007.35 1007.41 1007.56 1007.75 1007.92 1008.05 1008.12 1008.10 1008.02 1007.89 1007.73 1007.56 1007.39 1007.22 1007.04 1006.85 1006.63 1006.37 1006.08 1005.76 1005.45 1005.17 1004.96 1004.86 1004.87 1005.00 1005.26 1005.61 1006.03 1006.49 1006.96 1007.43 1007.89 1008.35
1013.98 1013.19 1012.35 1011.52 1010.73 1010.04 1009.47 1009.05 1008.79 1008.67 1008.67 1008.74 1008.85 1008.94 1009.00 1008.99 1008.91 1008.76 1008.57 1008.35 1008.11 1007.87 1007.62 1007.36 1007.07 1006.74 1006.37 1005.95 1005.51 1005.07 1004.65 1004.31 1004.08 1003.98 1004.02 1004.19 1004.48 1004.86 1005.29 1005.75 1006.22 1006.68 1007.14
1014.91 1014.28 1013.59 1012.88 1012.19 1011.56 1011.02 1010.60 1010.30 1010.13 1010.07 1010.06 1010.09 1010.11 1010.10 1010.02 1009.88 1009.69 1009.44 1009.17 1008.88 1008.57 1008.26 1007.93 1007.56 1007.15 1006.68 1006.17 1005.63 1005.07 1004.55 1004.09 1003.74 1003.52 1003.44 1003.51 1003.70 1003.99 1004.35 1004.75 1005.16 1005.58 1006.00
1015.79 1015.32 1014.77 1014.18 1013.59 1013.01 1012.50 1012.07 1011.75 1011.53 1011.40 1011.33 1011.29 1011.25 1011.18 1011.05 1010.87 1010.64 1010.36 1010.06 1009.73 1009.40 1009.04 1008.67 1008.26 1007.80 1007.28 1006.71 1006.10 1005.48 1004.88 1004.33 1003.88 1003.55 1003.35 1003.30 1003.37 1003.54 1003.79 1004.08 1004.40 1004.73 1005.07
1016.54 1016.20 1015.78 1015.29 1014.77 1014.25 1013.75 1013.32 1012.97 1012.71 1012.52 1012.40 1012.30 1012.21 1012.10 1011.95 1011.75 1011.51 1011.22 1010.91 1010.58 1010.24 1009.88 1009.49 1009.07 1008.60 1008.07 1007.49 1006.87 1006.21 1005.57 1004.97 1004.45 1004.03 1003.73 1003.56 1003.50 1003.54 1003.65 1003.81 1003.99 1004.20 1004.42
1017.09 1016.85 1016.52 1016.12 1015.65 1015.17 1014.69 1014.25 1013.88 1013.58 1013.36 1013.20 1013.07 1012.95 1012.82 1012.66 1012.47 1012.23 1011.96 1011.66 1011.34 1011.01 1010.67 1010.30 1009.90 1009.46 1008.96 1008.40 1007.79 1007.15 1006.51 1005.89 1005.33 1004.85 1004.47 1004.19 1004.01 1003.92 1003.89 1003.90 1003.94 1004.00 1004.08
Thickness
5679 5681 5683 5685 5686 5687 5687 5687 5687 5687 5687 5686 5686 5685 5685 5684 5683 5683 5683 5682 5682 5681 5681 5680 5679 5678 5676 5675 5674 5673 5671 5670 5669 5668 5667 5665 5664 5663 5662 5661 5660 5658 5657
5672 5675 5677 5679 5681 5682 5682 5681 5682 5682 5682 5682 5682 5681 5681 5680 5680 5679 5679 5678 5678 5677 5677 5677 5676 5675 5674 5672 5671 5669 5668 5667 5666 5665 5663 5662 5660 5659 5658 5657 5656 5654 5653
5665 5668 5670 5673 5675 5676 5677 5676 5676 5675 5676 5676 5676 5676 5676 5676 5676 5675 5675 5674 5674 5673 5673 5673 5672 5672 5670 5669 5668 5666 5665 5663 5662 5661 5659 5658 5657 5655 5654 5653 5652 5650 5649
5657 5660 5662 5665 5668 5670 5670 5671 5670 5669 5669 5670 5670 5671 5671 5671 5671 5671 5670 5670 5670 5669 5669 5668 5668 5667 5667 5666 5665 5663 5662 5660 5659 5657 5656 5654 5653 5651 5650 5649 5648 5647 5645
5647 5651 5654 5657 5660 5662 5664 5665 5665 5664 5663 5663 5664 5665 5665 5666 5666 5666 5666 5666 5665 5665 5665 5665 5664 5663 5662 5662 5661 5659 5658 5656 5655 5653 5652 5650 5649 5648 5646 5645 5644 5643 5641
5637 5641 5645 5648 5652 5654 5656 5657 5658 5658 5658 5657 5657 5658 5659 5659 5660 5661 5661 5661 5661 5661 5661 5660 5659 5659 5658 5657 5656 5655 5654 5652 5651 5649 5648 5646 5645 5644 5642 5641 5640 5638 5637
5627 5631 5635 5639 5642 5644 5648 5650 5651 5650 5650 5650 5648 5648 5650 5652 5653 5655 5655 5655 5656 5656 5656 5655 5654 5654 5653 5652 5651 5650 5649 5647 5646 5645 5644 5642 5641 5639 5638 5637 5635 5634 5633
5618 5622 5626 5630 5633 5635 5638 5641 5642 5642 5642 5642 5641 5640 5640 5642 5646 5649 5649 5649 5650 5650 5650 5649 5648 5648 5648 5647 5646 5645 5643 5642 5641 5640 5638 5637 5636 5634 5633 5632 5631 5629 5628
5609 5612 5617 5620 5623 5626 5629 5632 5634 5634 5634 5634 5635 5634 5634 5636 5637 5640 5642 5643 5643 5643 5644 5643 5643 5642 5642 5641 5640 5639 5637 5636 5634 5634 5633 5632 5630 5629 5627 5626 5625 5624 5623
5599 5603 5607 5610 5613 5617 5620 5623 5624 5626 5626 5625 5626 5627 5628 5630 5627 5629 5631 5634 5635 5636 5637 5637 5636 5636 5635 5634 5633 5633 5631 5630 5628 5627 5627 5626 5625 5623 5622 5621 5620 5619 5618
5589 5592 5596 5600 5604 5607 5610 5613 5614 5616 5617 5618 5618 5618 5617 5617 5620 5620 5621 5623 5625 5628 5629 5630 5630 5629 5628 5628 5627 5626 5625 5624 5622 5621 5620 5620 5619 5618 5616 5615 5614 5613 5612
5578 5581 5585 5589 5593 5597 5600 5603 5605 5605 5607 5608 5609 5609 5609 5608 5610 5610 5611 5613 5615 5619 5620 5621 5622 5622 5621 5620 5620 5620 5618 5616 5615 5614 5613 5613 5612 5611 5609 5608 5607 5606 5606
5569 5573 5576 5580 5583 5587 5590 5593 5595 5596 5597 5599 5600 5601 5601 5602 5602 5602 5602 5602 5604 5607 5609 5612 5614 5614 5613 5613 5612 5611 5610 5609 5607 5606 5606 5605 5604 5603 5602 5600 5600 5599 5599
5560 5563 5567 5570 5574 5577 5580 5583 5585 5587 5588 5590 5591 5591 5592 5593 5593 5594 5594 5592 5592 5594 5598 5602 5604 5605 5606 5604 5603 5602 5602 5600 5599 5599 5598 5596 5595 5594 5594 5592 5592 5591 5591
5552 5554 5557 5560 5563 5566 5570 5572 5574 5577 5578 5580 5581 5582 5583 5584 5584 5585 5585 5585 5584 5586 5590 5593 5593 5596 5596 5594 5594 5592 5592 5592 5591 5590 5589 5588 5586 5585 5585 5584 5583 5583 5584
5542 5545 5547 5550 5553 5556 5559 5561 5563 5567 5568 5570 5572 5572 5573 5574 5574 5575 5575 5576 5576 5578 5581 5585 5584 5585 5585 5584 5584 5583 5583 5583 5583 5581 5580 5579 5578 5577 5577 5576 5575 5575 5576
5533 5536 5538 5542 5545 5547 5550 5552 5554 5557 5559 5561 5561 5562 5563 5564 5564 5564 5564 5565 5566 5567 5570 5575 5573 5574 5573 5573 5573 5573 5573 5573 5573 5572 5571 5570 5569 5568 5568 5567 5567 5567 5568
5525 5527 5530 5533 5536 5539 5541 5544 5545 5547 5549 5550 5551 5552 5553 5554 5554 5554 5554 5554 5555 5556 5557 5561 5561 5561 5561 5561 5561 5561 5562 5563 5563 5563 5561 5560 5559 5559 5558 5558 5558 5558 5559
5519 5521 5523 5525 5528 5530 5532 5534 5535 5536 5538 5539 5540 5541 5543 5543 5544 5543 5543 5543 5544 5545 5545 5547 5550 5550 5550 5549 5549 5550 5551 5551 5552 5552 5551 5550 5550 5549 5548 5548 5549 5549 5550
5513 5514 5516 5518 5519 5521 5522 5523 5524 5525 5526 5527 5529 5530 5531 5532 5533 5532 5533 5533 5533 5532 5533 5535 5537 5538 5538 5537 5536 5537 5539 5540 5540 5541 5540 5539 5539 5538 5538 5539 5540 5540 5541
5505 5506 5507 5509 5510 5511 5513 5514 5514 5515 5516 5517 5518 5519 5520 5521 5522 5521 5522 5522 5521 5521 5521 5522 5524 5525 5526 5525 5526 5527 5527 5529 5530 5530 5529 5529 5528 5528 5528 5528 5530 5531 5532
5495 5497 5498 5499 5500 5502 5503 5504 5505 5505 5505 5506 5507 5507 5508 5508 5509 5509 5509 5510 5509 5508 5509 5509 5510 5512 5514 5513 5514 5514 5514 5515 5519 5521 5516 5519 5516 5518 5519 5519 5520 5522 5524
5486 5487 5488 5490 5491 5492 5493 5494 5494 5494 5494 5495 5495 5495 5495 5496 5496 5496 5497 5497 5496 5495 5495 5495 5496 5498 5498 5498 5499 5501 5500 5501 5505 5505 5502 5507 5506 5507 5509 5509 5510 5512 5514
5478 5478 5479 5480 5480 5481 5482 5482 5483 5483 5482 5482 5482 5482 5482 5483 5483 5483 5484 5483 5482 5482 5481 5482 5483 5484 5483 5483 5484 5485 5486 5488 5490 5490 5488 5492 5496 5496 5498 5498 5500 5501 5504
5469 5469 5470 5469 5469 5469 5470 5471 5471 5470 5470 5470 5470 5470 5470 5471 5472 5472 5471 5471 5471 5470 5469 5468 5468 5469 5469 5470 5470 5470 5471 5472 5477 5479 5477 5477 5482 5483 5486 5488 5490 5490 5492
5459 5459 5459 5458 5457 5457 5459 5459 5459 5459 5459 5459 5458 5458 5459 5460 5460 5459 5458 5457 5457 5457 5456 5456 5456 5456 5455 5456 5456 5455 5456 5457 5460 5464 5466 5464 5466 5466 5473 5479 5478 5478 5480